Tupelo, MS

10:30 AM CDT on July 22, 2017 (GMT -0500)
Tupelo Regional

Weather History for KTUP - December, 2013

Change the Weather History Date:

Saturday, December 21, 2013

  Actual Average Record
Temperature  
Mean Temperature 70 °F 43 °F  
Max Temperature 78 °F 52 °F 78 °F (2013)
Min Temperature 61 °F 33 °F 7 °F (1989)
Degree Days  
Heating Degree Days 0 22  
Month to date heating degree days 416 423  
Since 1 July heating degree days 1039 945  
Cooling Degree Days 5 0  
Month to date cooling degree days 9 0  
Year to date cooling degree days 2036 2044  
Growing Degree Days 19 (Base 50)    
Moisture  
Dew Point 63 °F    
Average Humidity 76    
Maximum Humidity 93    
Minimum Humidity 58    
Precipitation  
Precipitation 1.32 in 0.18 in 2.62 in (1990)
Month to date precipitation 5.41 4.50  
Year to date precipitation 52.28 53.23  
Snow  
Snow 0.00 in 0.00 in T in (2004)
Month to date snowfall T 0.1  
Since 1 July snowfall T 0.1  
Snow Depth 0.00 in    
Sea Level Pressure  
Sea Level Pressure 29.74 in    
Wind  
Wind Speed 17 mph (SSW)    
Max Wind Speed 31 mph    
Max Gust Speed 46 mph    
Visibility 9 miles    
Events Rain , Thunderstorm    
T = Trace of Precipitation, MM = Missing Value Source: NWS Daily Summary

Daily Weather History Graph

Daily Weather History Graph

Search for Another Location

Airport or City:

Trip Planner

Search our weather history database for the weather conditions in past years. The results will help you decide how hot, cold, wet, or windy it might be!

Date:

Astronomy

Dec. 21, 2013 Rise Set
Actual Time 6:57 AM CST 4:49 PM CST
Civil Twilight 6:29 AM CST 5:17 PM CST
Nautical Twilight 5:58 AM CST 5:48 PM CST
Astronomical Twilight 5:27 AM CST 6:19 PM CST
Moon 8:55 PM CST (12/21) 9:32 AM CST (12/21)
Length of Visible Light 10h 47m
Length of Day
9h 51m
Waning Gibbous, 84% of the Moon is Illuminated
Dec 21
Waning Gibbous
Dec 25
Last Quarter
Jan 1
New
Jan 7
First Quarter
Jan 15
Full

Hourly Weather History & Observations

Time (CST) Temp. Dew Point Humidity Pressure Visibility Wind Dir Wind Speed Gust Speed Precip Events Conditions
12:17 AM 66.2 °F 62.6 °F 88% 29.91 in 10.0 mi SSW 16.1 mph 25.3 mph N/A   Overcast
12:53 AM 66.0 °F 62.1 °F 87% 29.88 in 10.0 mi SSW 13.8 mph 21.9 mph N/A   Overcast
1:13 AM 66.2 °F 62.6 °F 88% 29.88 in 10.0 mi SSW 16.1 mph - N/A   Overcast
1:27 AM 66.2 °F 62.6 °F 88% 29.87 in 10.0 mi SSW 12.7 mph - N/A   Overcast
1:53 AM 66.0 °F 62.1 °F 87% 29.87 in 10.0 mi SSW 12.7 mph - N/A   Overcast
2:11 AM 66.2 °F 62.6 °F 88% 29.88 in 10.0 mi SSW 13.8 mph 21.9 mph N/A   Overcast
2:37 AM 66.2 °F 62.6 °F 88% 29.87 in 10.0 mi SSW 13.8 mph - N/A   Overcast
2:53 AM 66.0 °F 62.1 °F 87% 29.86 in 10.0 mi South 15.0 mph - N/A   Overcast
3:16 AM 66.2 °F 62.6 °F 88% 29.86 in 10.0 mi SSW 18.4 mph 25.3 mph N/A   Overcast
3:53 AM 64.9 °F 61.0 °F 87% 29.85 in 10.0 mi SSW 13.8 mph 20.7 mph N/A   Overcast
4:53 AM 66.0 °F 61.0 °F 84% 29.81 in 10.0 mi South 17.3 mph 23.0 mph N/A   Overcast
5:51 AM 66.2 °F 62.6 °F 88% 29.80 in 10.0 mi South 15.0 mph - N/A   Overcast
5:53 AM 66.0 °F 62.1 °F 87% 29.79 in 10.0 mi South 16.1 mph - N/A   Overcast
6:53 AM 66.9 °F 63.0 °F 87% 29.79 in 10.0 mi SSW 16.1 mph 21.9 mph N/A   Overcast
7:53 AM 68.0 °F 64.0 °F 87% 29.77 in 10.0 mi South 17.3 mph 27.6 mph N/A   Mostly Cloudy
8:00 AM 69.8 °F 64.4 °F 83% 29.78 in 10.0 mi South 15.0 mph 29.9 mph N/A   Mostly Cloudy
8:53 AM 69.1 °F 64.0 °F 84% 29.79 in 10.0 mi SSW 17.3 mph 27.6 mph N/A   Scattered Clouds
9:53 AM 70.0 °F 64.0 °F 81% 29.79 in 10.0 mi SSW 13.8 mph 23.0 mph N/A   Overcast
10:53 AM 71.1 °F 64.9 °F 81% 29.77 in 10.0 mi SSW 13.8 mph - N/A   Overcast
11:53 AM 75.0 °F 64.9 °F 71% 29.72 in 10.0 mi SSW 17.3 mph 20.7 mph N/A   Scattered Clouds
12:53 PM 75.9 °F 64.0 °F 67% 29.68 in 10.0 mi SSW 17.3 mph 23.0 mph N/A   Overcast
1:53 PM 77.0 °F 62.1 °F 60% 29.65 in 10.0 mi SSW 21.9 mph 29.9 mph N/A   Overcast
2:53 PM 78.1 °F 63.0 °F 60% 29.63 in 10.0 mi SSW 16.1 mph 27.6 mph N/A   Mostly Cloudy
3:53 PM 77.0 °F 63.0 °F 62% 29.62 in 10.0 mi SSW 17.3 mph 28.8 mph N/A   Scattered Clouds
4:53 PM 77.0 °F 63.0 °F 62% 29.62 in 10.0 mi SSW 20.7 mph 36.8 mph N/A   Scattered Clouds
5:53 PM 75.9 °F 64.0 °F 67% 29.61 in 10.0 mi SSW 24.2 mph 38.0 mph N/A   Overcast
6:53 PM 75.9 °F 64.0 °F 67% 29.62 in 10.0 mi SSW 27.6 mph 38.0 mph 0.00 in   Overcast
7:06 PM 75.2 °F 64.4 °F 69% 29.63 in 10.0 mi SSW 25.3 mph 35.7 mph N/A Thunderstorm Thunderstorm
7:23 PM 75.2 °F 64.4 °F 69% 29.63 in 10.0 mi SSW 23.0 mph 35.7 mph N/A   Overcast
7:32 PM 73.4 °F 64.4 °F 73% 29.63 in 10.0 mi SSW 21.9 mph 35.7 mph N/A Thunderstorm Thunderstorm
7:51 PM 73.4 °F 66.2 °F 78% 29.65 in 10.0 mi SSW 23.0 mph 34.5 mph 0.00 in Rain Light Rain
7:53 PM 73.0 °F 66.0 °F 79% 29.64 in 10.0 mi SSW 21.9 mph 34.5 mph 0.00 in Rain Light Rain
8:04 PM 73.4 °F 66.2 °F 78% 29.66 in 10.0 mi SW 20.7 mph 32.2 mph 0.00 in Thunderstorm Thunderstorm
8:20 PM 73.4 °F 66.2 °F 78% 29.71 in 10.0 mi WNW 20.7 mph 31.1 mph 0.00 in   Overcast
8:23 PM 69.8 °F 62.6 °F 78% 29.71 in 9.0 mi West 26.5 mph 43.7 mph 0.00 in   Overcast
8:29 PM 64.4 °F 60.8 °F 88% 29.71 in 1.8 mi WSW 16.1 mph 46.0 mph 0.05 in Rain Heavy Rain
8:38 PM 64.4 °F 62.6 °F 94% 29.70 in 1.0 mi SW 15.0 mph 24.2 mph 0.32 in Rain , Thunderstorm Heavy Thunderstorms and Rain
8:53 PM 63.0 °F 61.0 °F 93% 29.70 in 2.0 mi SW 13.8 mph 23.0 mph 0.69 in Rain , Thunderstorm Thunderstorms and Rain
9:08 PM 62.6 °F 60.8 °F 94% 29.71 in 1.5 mi SSW 17.3 mph 24.2 mph 0.26 in Rain , Thunderstorm Heavy Thunderstorms and Rain
9:14 PM 62.6 °F 60.8 °F 94% 29.71 in 3.0 mi WSW 9.2 mph 24.2 mph 0.31 in Rain , Thunderstorm Heavy Thunderstorms and Rain
9:27 PM 62.6 °F 60.8 °F 94% 29.71 in 4.0 mi SW 10.4 mph - 0.38 in Rain , Thunderstorm Thunderstorms and Rain
9:53 PM 63.0 °F 61.0 °F 93% 29.70 in 6.0 mi SSW 9.2 mph - 0.45 in Rain , Thunderstorm Light Thunderstorms and Rain
10:28 PM 62.6 °F 60.8 °F 94% 29.74 in 10.0 mi SSW 13.8 mph - 0.05 in Rain , Thunderstorm Light Thunderstorms and Rain
10:39 PM 62.6 °F 60.8 °F 94% 29.72 in 8.0 mi SSW 9.2 mph - 0.07 in Rain , Thunderstorm Thunderstorms and Rain
10:53 PM 62.1 °F 61.0 °F 96% 29.72 in 8.0 mi SW 10.4 mph - 0.09 in Rain Light Rain
11:03 PM 62.6 °F 60.8 °F 94% 29.78 in 6.0 mi SSW 18.4 mph 21.9 mph 0.03 in Rain Rain
11:18 PM 62.6 °F 60.8 °F 94% 29.73 in 7.0 mi SSW 15.0 mph - 0.07 in Rain , Thunderstorm Light Thunderstorms and Rain
11:46 PM 62.6 °F 59.0 °F 88% 29.74 in 10.0 mi SW 9.2 mph - 0.08 in Rain Light Rain
11:53 PM 62.1 °F 59.0 °F 90% 29.74 in 10.0 mi SW 11.5 mph - 0.09 in Rain Light Rain